Weather History for Dickinson, ND

Change the Weather History Date:

Thursday, March 21, 2013

  Actual Average Record
Temperature  
Mean Temperature 22 °F 32 °F  
Max Temperature 30 °F 43 °F 75 °F (1910)
Min Temperature 14 °F 21 °F -18 °F (1913)
Degree Days  
Heating Degree Days 43 33  
Month to date heating degree days 836 778  
Since 1 July heating degree days 6814 7072  
Cooling Degree Days 0 0  
Month to date cooling degree days 0 0  
Year to date cooling degree days 0 0  
Moisture  
Dew Point 11 °F    
Average Humidity 71    
Maximum Humidity 92    
Minimum Humidity 49    
Precipitation  
Precipitation T in 0.02 in 0.53 in (1987)
Month to date precipitation 0.30 0.40  
Year to date precipitation 0.38 1.03  
Sea Level Pressure  
Sea Level Pressure 29.90 in    
Wind  
Wind Speed 15 mph (ESE)    
Max Wind Speed 25 mph    
Max Gust Speed 31 mph    
Visibility 7 miles    
Events Snow    
T = Trace of Precipitation, MM = Missing Value Source: NWS Daily Summary

Daily Weather History Graph

Daily Weather History Graph

Search for Another Location

Airport:

Trip Planner

Search our weather history database for the weather conditions in past years. The results will help you decide how hot, cold, wet, or windy it might be!

Date:

Astronomy

Mar. 21, 2013 Rise Set
Actual Time 6:51 AM MDT 7:05 PM MDT
Civil Twilight 6:21 AM MDT 7:36 PM MDT
Nautical Twilight 5:45 AM MDT 8:11 PM MDT
Astronomical Twilight 5:09 AM MDT 8:48 PM MDT
Moon 1:19 PM MDT (3/21) 3:33 AM MDT (3/21)
Length of Visible Light 13h 14m
Length of Day
12h 14m
Waxing Gibbous, 69% of the Moon is Illuminated
Mar 21
Waxing Gibbous
Mar 27
Full
Apr 2
Last Quarter
Apr 10
New
Apr 18
First Quarter

Hourly Weather History & Observations

Time (MDT) Temp. Windchill Dew Point Humidity Pressure Visibility Wind Dir Wind Speed Gust Speed Precip Events Conditions
12:56 AM 19.0 °F 4.0 °F 9.0 °F 65% 29.92 in 10.0 mi SE 17.3 mph 27.6 mph N/A   Overcast
1:56 AM 18.0 °F 2.6 °F 9.0 °F 68% 29.92 in 10.0 mi SE 17.3 mph - N/A   Overcast
2:56 AM 17.1 °F -0.6 °F 7.0 °F 65% 29.91 in 10.0 mi SE 23.0 mph 27.6 mph N/A   Overcast
3:56 AM 16.0 °F -1.3 °F 7.0 °F 68% 29.89 in 10.0 mi SE 20.7 mph - N/A   Overcast
4:56 AM 16.0 °F -2.5 °F 1.0 °F 52% 29.86 in 10.0 mi SE 24.2 mph 31.1 mph N/A   Overcast
5:56 AM 14.0 °F -3.9 °F 1.9 °F 59% 29.88 in 10.0 mi SE 20.7 mph - N/A   Overcast
6:56 AM 14.0 °F -2.5 °F -0.0 °F 54% 29.88 in 10.0 mi SE 17.3 mph 29.9 mph N/A   Overcast
7:56 AM 14.0 °F -3.0 °F 1.0 °F 56% 29.89 in 10.0 mi ESE 18.4 mph 27.6 mph N/A   Overcast
8:56 AM 16.0 °F 0.1 °F 1.9 °F 54% 29.89 in 10.0 mi SE 17.3 mph 28.8 mph N/A   Overcast
9:56 AM 18.0 °F 2.6 °F 3.0 °F 52% 29.89 in 10.0 mi SE 17.3 mph - N/A   Overcast
10:56 AM 19.0 °F 2.7 °F 3.9 °F 52% 29.89 in 10.0 mi ESE 20.7 mph 27.6 mph N/A   Overcast
11:56 AM 19.9 °F 5.7 °F 6.1 °F 55% 29.91 in 10.0 mi SE 16.1 mph - N/A   Overcast
12:29 PM 21.2 °F 8.3 °F 6.8 °F 54% 29.78 in 9.0 mi SE 13.8 mph - 0.00 in   Overcast
12:56 PM 24.1 °F 12.5 °F 8.1 °F 51% 29.89 in 10.0 mi ESE 12.7 mph 21.9 mph 0.00 in   Overcast
1:56 PM 26.1 °F 15.0 °F 10.9 °F 53% 29.87 in 10.0 mi ESE 12.7 mph - N/A   Overcast
2:56 PM 27.0 °F 15.6 °F 10.9 °F 51% 29.89 in 10.0 mi ESE 13.8 mph - N/A   Overcast
3:56 PM 28.9 °F 18.2 °F 14.0 °F 54% 29.88 in 10.0 mi SE 13.8 mph - N/A   Overcast
4:56 PM 28.9 °F 18.2 °F 14.0 °F 54% 29.89 in 8.0 mi ESE 13.8 mph - 0.00 in Snow Light Snow
5:56 PM 26.1 °F 15.6 °F 16.0 °F 66% 29.92 in 6.0 mi ESE 11.5 mph - 0.00 in Snow Light Snow
6:56 PM 26.1 °F 16.2 °F 18.0 °F 71% 29.94 in 5.0 mi SE 10.4 mph - 0.00 in Snow Light Snow
7:56 PM 25.0 °F 15.5 °F 19.0 °F 78% 29.96 in 6.0 mi ESE 9.2 mph - 0.00 in Snow Light Snow
8:56 PM 24.1 °F 16.0 °F 19.9 °F 84% 29.97 in 8.0 mi SE 6.9 mph - 0.00 in Snow Light Snow
9:56 PM 21.9 °F 11.7 °F 19.0 °F 89% 29.98 in 2.5 mi ESE 9.2 mph - 0.00 in Snow Light Snow
10:05 PM 21.2 °F 9.5 °F 19.4 °F 93% 29.86 in 1.2 mi ESE 11.5 mph - 0.00 in Snow Light Snow
10:28 PM 21.2 °F 10.1 °F 17.6 °F 86% 29.86 in 2.5 mi ESE 10.4 mph - 0.00 in Snow Light Snow
10:46 PM 21.2 °F 9.5 °F 17.6 °F 86% 29.85 in 1.5 mi ESE 11.5 mph - 0.00 in Snow Light Snow
10:56 PM 21.0 °F 9.9 °F 18.0 °F 88% 29.97 in 2.5 mi ESE 10.4 mph - 0.00 in Snow Light Snow
10:59 PM 21.2 °F 10.1 °F 17.6 °F 86% 29.85 in 3.0 mi ESE 10.4 mph - 0.00 in Snow Light Snow
11:29 PM 19.4 °F 6.6 °F 17.6 °F 93% 29.85 in 2.5 mi ESE 12.7 mph - 0.00 in Snow Light Snow
11:39 PM 19.4 °F 7.2 °F 17.6 °F 93% 29.85 in 4.0 mi ESE 11.5 mph - 0.00 in Snow Light Snow
11:56 PM 19.9 °F 7.9 °F 17.1 °F 89% 29.97 in 6.0 mi ESE 11.5 mph - 0.00 in Snow Light Snow